Location: Newark
(33.9035°S, 18.4112°E)
Time: 18:47:09
(UTC+00:00)

STARLINK-1125 - Pass Details

Date: 21 January 2020
Orbit: 348 x 351 km, 53.0° (Epoch: 18 February)

Event Time Altitude Azimuth Distance (km) Brightness Sun altitude
Exits shadow 01:34:41 11° 80° (E) 1,296 5.9 -24.3°
Drops below altitude 10° 01:34:51 10° 83° (E) 1,325 6.0 -24.3°
Enters shadow 02:29:56 -72° 313° (NW) 12,498 10.5 -16.1°
Maximum altitude 03:08:20 33° 221° (SW) 624 3.8 -9.6°
